This demonstration page uses our WeatherBlox Daily Observations layout. Learn more.

Left ArrowRight Arrow

30.21309, -93.2044

Hourly Observations for July 8, 2021

Temp ( °F °C ) Dew Point ( °F °C ) Humidity (%) Winds ( mph kmh ) Pressure ( in mb ) Visibility ( mi km ) Precip ( " mm )
12:15 am 00:15 Clear 79 25.9 73 22.8 83 83 S 5 7 29.94 1014 10 16 0.00 0.00
12:35 am 00:35 Clear 78 25.4 73 22.8 86 86 Calm 29.93 1014 10 16 0.00 0.00
12:55 am 00:55 Clear 78 25.5 73 22.9 86 86 Calm 29.93 1014 10 16 0.00 0.00
1:15 am 01:15 Clear 78 25.7 73 22.6 83 83 Calm 29.92 1013 10 16 0.00 0.00
1:35 am 01:35 Clear 78 25.4 73 23 87 87 Calm 29.92 1013 10 16 0.00 0.00
1:55 am 01:55 Clear 77 24.9 73 22.9 89 89 SE 3 6 29.91 1013 10 16 0.00 0.00
2:15 am 02:15 Clear 76 24.5 74 23.1 92 92 SE 5 7 29.90 1013 10 16 0.00 0.00
2:35 am 02:35 Clear 76 24.7 74 23.1 91 91 SE 3 6 29.90 1013 10 16 0.00 0.00
2:55 am 02:55 Clear 76 24.5 74 23.1 92 92 SSE 5 7 29.90 1013 10 16 0.00 0.00
3:15 am 03:15 Clear 76 24.5 74 23.2 92 92 Calm 29.90 1013 10 16 0.00 0.00
3:35 am 03:35 Clear 77 24.8 74 23.4 92 92 SE 3 6 29.91 1013 10 16 0.00 0.00
3:55 am 03:55 Clear 77 24.8 74 23.4 92 92 Calm 29.91 1013 10 16 0.00 0.00
4:15 am 04:15 Clear 77 24.8 74 23.5 93 93 Calm 29.91 1013 10 16 0.00 0.00
4:35 am 04:35 Clear 77 24.8 74 23.5 93 93 Calm 29.92 1013 10 16 0.00 0.00
4:55 am 04:55 Clear 77 25 74 23.5 91 91 Calm 29.92 1013 10 16 0.00 0.00
5:15 am 05:15 Clear 77 25 74 23.5 91 91 NE 3 6 29.93 1014 10 16 0.00 0.00
5:35 am 05:35 Partly Cloudy 77 24.9 74 23.5 92 92 Calm 29.93 1014 10 16 0.00 0.00
6:00 am 06:00 Mostly Cloudy 75 24 73 23 94 94 Calm 29.93 1014 10 16 0.00 0.00
6:45 am 06:45 Mostly Cloudy 77 25 73 23 89 89 Calm 29.94 1014 10 16 0.00 0.00
7:47 am 07:47 Mostly Cloudy 79 26 75 24 89 89 ENE 8 13 29.97 1015 10 16 0.00 0.00
8:55 am 08:55 Mostly Cloudy 81 27 77 25 89 89 E 8 13 29.98 1015 10 16 0.00 0.00
9:50 am 09:50 Mostly Cloudy with Showers 79 26 70 21 74 74 SW 8 13 29.99 1016 6 10 0.00 0.00
10:50 am 10:50 Mostly Cloudy with Showers 77 25 73 23 89 89 SSE 8 13 30.00 1016 6 10 0.00 0.00
11:45 am 11:45 Mostly Cloudy 81 27 75 24 84 84 SSE 12 19 29.99 1016 10 16 0.00 0.00
12:50 pm 12:50 Partly Cloudy 82 28 73 23 74 74 S 8 13 30.00 1016 10 16 0.00 0.00
1:50 pm 13:50 Partly Cloudy 82 28 73 23 74 74 SSE 8 13 29.99 1016 10 16 0.00 0.00
2:50 pm 14:50 Mostly Sunny 82 28 72 22 70 70 S 8 13 29.99 1016 10 16 0.00 0.00
3:55 pm 15:55 Mostly Cloudy 79 26 72 22 79 79 SSE 8 13 30.00 1016 10 16 0.00 0.00
4:50 pm 16:50 Cloudy with Light Rain 77 25 73 23 89 89 SE 15 24 29.99 1016 10 16 0.00 0.00
5:50 pm 17:50 Cloudy with Light Rain 73 23 72 22 94 94 ESE 12 19 29.99 1016 10 16 0.00 0.00
6:50 pm 18:50 Mostly Cloudy with Light Rain 75 24 72 22 89 89 SE 15 24 29.99 1016 10 16 0.00 0.00
7:50 pm 19:50 Mostly Cloudy with Light Rain 75 24 72 22 89 89 ESE 13 20 30.01 1016 10 16 0.00 0.00
9:50 pm 21:50 Cloudy with Light Rain 73 23 72 22 94 94 SSE 3 6 30.01 1016 10 16 0.00 0.00
10:15 pm 22:15 Partly Cloudy with Light Rain 74 23.6 73 22.7 95 95 E 3 6 30.01 1016 10 16 0.01 0.25
10:35 pm 22:35 Partly Cloudy with Light Rain 75 23.7 73 22.7 94 94 ENE 5 7 30.02 1017 10 16 0.01 0.25
10:55 pm 22:55 Partly Cloudy 74 23.6 73 22.6 94 94 NE 6 9 30.02 1017 10 16 0.01 0.25
11:15 pm 23:15 Cloudy 74 23.5 73 22.6 95 95 ENE 6 9 30.02 1017 10 16 0.00 0.00
11:35 pm 23:35 Cloudy 74 23.5 73 22.6 95 95 E 6 9 30.02 1017 10 16 0.00 0.00
11:55 pm 23:55 Mostly Cloudy 74 23.6 73 22.6 94 94 ENE 6 9 30.02 1017 10 16 0.00 0.00

Powered by AerisWeather